[[{"header":{"parameterUnit":"m.s-1","parameterCategory":1,"la1":30.2991,"la2":30.254,"lo1":-89.0895,"lo2":-89.0444,"dy":0.0017,"dx":0.0017,"nx":28,"ny":28,"refTime":"2023-09-05T21:00:00:Z","depth":0,"parameterNumber":2,"parameterNumberName":"U-component_of_WINDS"},"data":[0,0,0,0,0,0,0,0,0,0,0,0,0,0,0,0,0,0,0,0,0,0,0,0,0,0,0,0,0,0,0,0,0,0,0,0,0,0,0,0,0,0,0,0,0,0,0,0,0,0,0,0,0,0,0,0,0,0,-3.0,-2.9999,0,-2.9941,-2.9941,-2.994,-2.987,-2.9869,-2.9868,-2.9867,-2.9807,-2.9806,-2.9805,0,0,0,0,0,0,0,0,0,0,0,0,0,-3.0052,-3.0051,-3.0,-2.9999,-2.9998,-2.9941,-2.9941,-2.994,-2.9871,-2.9869,-2.9868,-2.9867,-2.9807,-2.9806,-2.9805,0,0,0,0,0,0,0,0,0,0,0,0,0,-3.0015,-3.0051,-3.0,-2.9957,-2.9953,-2.9942,-2.9941,-2.994,-2.9871,-2.9869,-2.9868,-2.9866,-2.9807,-2.9806,-2.9805,-2.9831,0,0,-2.9802,-2.9802,0,0,0,0,0,0,0,0,-3.0017,-3.0013,-2.9964,-2.996,-2.9955,-2.9912,-2.9937,-2.9903,-2.9871,-2.9902,-2.9867,-2.9865,-2.9843,-2.9839,-2.9831,-2.9829,-2.9826,-2.9802,-2.9802,-2.9801,-2.9801,0,0,0,0,0,0,0,-3.002,-3.0015,-2.9977,-2.9963,-2.9958,-2.9941,-2.9934,-2.993,-2.9882,-2.9899,-2.9894,-2.9888,-2.984,-2.9832,-2.9829,-2.9825,-2.9802,-2.9801,-2.9801,-2.98,-2.9842,-2.9844,0,0,0,0,0,0,-3.0029,-3.0018,-2.9978,-2.9975,-2.9983,-2.9941,-2.9933,-2.9927,-2.9882,-2.9873,-2.9889,-2.9885,-2.9835,-2.983,-2.9827,-2.9855,-2.9801,-2.98,-2.98,-2.9841,-2.9843,-2.9844,0,0,0,0,0,0,-3.003,-3.0026,-2.9981,-2.9995,-2.9988,-2.9942,-2.9936,-2.9927,-2.9919,-2.9875,-2.9866,-2.989,-2.9833,-2.9828,-2.9831,-2.9852,-2.98,-2.9799,-2.9839,-2.9841,-2.9843,-2.9911,0,0,0,0,0,0,-3.0032,-3.0027,-3.0036,-2.9996,-2.9987,-2.9986,-2.9937,-2.9927,-2.9918,-2.9911,-2.9873,-2.9865,-2.9832,-2.9833,-2.983,-2.9849,-2.9798,-2.9836,-2.984,-2.9843,-2.9906,-2.9915,-2.9923,0,0,0,0,0,-3.0034,-3.0057,-3.0037,-3.0032,-2.9998,-2.9987,-2.9982,-2.9944,-2.992,-2.9929,-2.99,-2.9866,-2.9851,-2.9834,-2.983,-2.9849,-2.9835,-2.9839,-2.9842,-2.9903,-2.9913,-2.9922,0,0,0,0,0,0,-3.0099,-3.005,-3.0028,-3.0038,-3.0018,-2.9975,-2.9985,-2.9956,-2.9941,-2.9936,-2.9888,-2.988,-2.9889,-2.987,-2.9852,-2.9873,-2.9838,-2.9841,-2.9885,-2.9895,-2.9903,-2.9906,-2.9798,0,0,0,0,0,-3.0116,-3.0111,-3.0068,-3.0082,-3.0073,-3.0031,-3.0025,-2.9997,-2.9974,-2.9964,-2.9936,-2.9915,-2.9905,-2.9899,-2.9887,-2.9904,-2.9895,-2.9916,-2.9924,-2.9931,-2.9934,-2.9942,-2.995,-2.9857,-2.9857,-2.9857,0,0,-3.0148,-3.012,-3.012,-3.0094,-3.0075,-3.0071,-3.0024,-3.0022,-3.0019,-2.9964,-2.9964,-2.9944,-2.9917,-2.9927,-2.993,-2.9911,-2.9958,-2.9936,-2.9942,-2.994,-2.9946,-2.9955,-2.9963,-2.9859,-2.9859,-2.9858,0,0,-3.0204,-3.0184,-3.0192,-3.0175,-3.0146,-3.0119,-3.0122,-3.0085,-3.0069,-3.0069,-3.0028,-3.0024,-3.0008,-2.9991,-2.998,-3.0033,-3.0001,-3.0031,-3.0073,-3.0081,-3.0088,-3.0095,-3.0113,-3.012,-3.0034,-3.0034,-3.0035,0,-3.0247,-3.024,-3.02,-3.0201,-3.0191,-3.0143,-3.0152,-3.0137,-3.0106,-3.01,-3.008,-3.006,-3.0038,-3.0044,-3.0057,-3.005,-3.0052,-3.0034,-3.0091,-3.0096,-3.0102,-3.0119,-3.0126,-3.0038,-3.0038,-3.0037,-3.0037,0,-3.0295,-3.0291,-3.0302,-3.0274,-3.0266,-3.0271,-3.0232,-3.0228,-3.0203,-3.0178,-3.018,-3.0152,-3.0135,-3.0135,-3.0109,-3.0137,-3.0126,-3.0099,-3.0062,-3.0115,-3.013,-3.0136,-3.0043,-3.0042,-3.0041,-3.004,0,0,-3.0387,-3.034,-3.0345,-3.0332,-3.0299,-3.0295,-3.0299,-3.0282,-3.028,-3.0262,-3.0263,-3.0253,-3.0228,-3.0216,-3.0188,-3.0196,-3.0239,-3.0167,-3.0166,-3.0181,-3.0269,-3.0288,-3.0296,-3.0219,-3.0221,-3.0221,-3.0271,0,-3.0437,-3.044,-3.0405,-3.0418,-3.0414,-3.037,-3.0373,-3.0353,-3.0331,-3.0325,-3.03,-3.0293,-3.0261,-3.0253,-3.0259,-3.0233,-3.0256,-3.0229,-3.022,-3.022,-3.0226,-3.0304,-3.0324,-3.0372,-3.0277,-3.0278,-3.0278,0,-3.0494,-3.048,-3.0492,-3.046,-3.0457,-3.046,-3.0443,-3.0438,-3.0415,-3.0399,-3.0387,-3.0356,-3.0357,-3.0325,-3.0326,-3.0309,-3.0304,-3.0291,-3.0291,-3.0287,-3.0251,-3.0301,-3.0387,-3.0393,-3.0287,-3.0287,-3.0286,0,-3.0559,-3.0543,-3.0549,-3.054,-3.0502,-3.0506,-3.0491,-3.0467,-3.046,-3.0445,-3.044,-3.0426,-3.0418,-3.0408,-3.0375,-3.0354,-3.0381,-3.0345,-3.0366,-3.0367,-3.0372,-3.0372,-3.0456,-3.0372,-3.0372,-3.0372,-3.0371,0,-3.0617,-3.0626,-3.0578,-3.0581,-3.059,-3.0552,-3.0562,-3.0542,-3.0522,-3.052,-3.0482,-3.0482,-3.0438,-3.0434,-3.0408,-3.0413,-3.041,-3.0397,-3.0389,-3.0399,-3.0401,-3.0393,-3.0388,-3.0373,-3.0373,-3.0373,-3.0372,0,-3.069,-3.0658,-3.0661,-3.0627,-3.0618,-3.0627,-3.0597,-3.0599,-3.0576,-3.0575,-3.0572,-3.0536,-3.0528,-3.0494,-3.0479,-3.0461,-3.0475,-3.0462,-3.0483,-3.0478,-3.0501,-3.0499,-3.0582,-3.0591,-3.0503,-3.0504,-3.0504,0,-3.0727,-3.0733,-3.07,-3.0697,-3.0684,-3.0679,-3.0672,-3.0635,-3.063,-3.0606,-3.0611,-3.0601,-3.059,-3.058,-3.0552,-3.0541,-3.0526,-3.0556,-3.0523,-3.0533,-3.0525,-3.0524,-3.0524,-3.0562,-3.0563,-3.0564,-3.0565,0,-3.0797,-3.0782,-3.0774,-3.0761,-3.0754,-3.0741,-3.0727,-3.0726,-3.0686,-3.0682,-3.0674,-3.0666,-3.0651,-3.0641,-3.0625,-3.061,-3.0581,-3.0576,-3.058,-3.0589,-3.06,-3.0593,-3.05,-3.0573,-3.0572,-3.0572,-3.0571,-3.0571,-3.0853,-3.0856,-3.0834,-3.0826,-3.0812,-3.08,-3.08,-3.0778,-3.0771,-3.0756,-3.0735,-3.0731,-3.071,-3.0685,-3.0673,-3.0668,-3.0652,-3.0658,-3.0659,-3.0661,-3.0666,-3.0603,-3.0666,-3.0665,-3.0665,-3.0665,-3.0665,0,-3.092,-3.0904,-3.0898,-3.0879,-3.0873,-3.0848,-3.0832,-3.0828,-3.0825,-3.0808,-3.0799,-3.0791,-3.0782,-3.0755,-3.0743,-3.0745,-3.0732,-3.0743,-3.0742,-3.0739,-3.0681,-3.0678,-3.0755,-3.0755,-3.0755,-3.0755,-3.0755,-3.0755,-3.0954,-3.0959,-3.0941,-3.0939,-3.0923,-3.0919,-3.0911,-3.09,-3.0887,-3.0879,-3.0872,-3.0855,-3.0834,-3.0821,-3.0812,-3.0804,-3.0801,-3.0817,-3.0805,-3.0751,-3.0743,-3.0734,-3.0731,-3.0817,-3.0817,-3.0862,-3.0863,-3.0863]},{"header":{"parameterUnit":"m.s-1","parameterCategory":1,"la1":30.2991,"la2":30.254,"lo1":-89.0895,"lo2":-89.0444,"dy":0.0017,"dx":0.0017,"nx":28,"ny":28,"refTime":"2023-09-05T21:00:00:Z","depth":0,"parameterNumber":3,"parameterNumberName":"V-component_of_WINDS"},"data":[0,0,0,0,0,0,0,0,0,0,0,0,0,0,0,0,0,0,0,0,0,0,0,0,0,0,0,0,0,0,0,0,0,0,0,0,0,0,0,0,0,0,0,0,0,0,0,0,0,0,0,0,0,0,0,0,0,0,2.3748,2.3748,0,2.3753,2.3753,2.3753,2.3812,2.3814,2.3815,2.3817,2.3816,2.3814,2.3813,0,0,0,0,0,0,0,0,0,0,0,0,0,2.3785,2.3784,2.3748,2.3748,2.3748,2.3753,2.3753,2.3753,2.3812,2.3814,2.3816,2.3817,2.3816,2.3814,2.3813,0,0,0,0,0,0,0,0,0,0,0,0,0,2.3777,2.3783,2.3748,2.3778,2.3781,2.3753,2.3753,2.3753,2.3811,2.3814,2.3816,2.3818,2.3817,2.3815,2.3812,2.3754,0,0,2.3806,2.3805,0,0,0,0,0,0,0,0,2.3777,2.3775,2.3773,2.3776,2.3779,2.3784,2.3766,2.3753,2.3811,2.38,2.3817,2.3819,2.3803,2.3802,2.3798,2.3754,2.3754,2.3806,2.3804,2.3803,2.3803,0,0,0,0,0,0,0,2.3778,2.3775,2.3749,2.3773,2.3777,2.379,2.3791,2.3763,2.3788,2.3801,2.3805,2.3805,2.3805,2.38,2.3798,2.3754,2.3806,2.3804,2.3803,2.3802,2.3661,2.3659,0,0,0,0,0,0,2.3775,2.3776,2.3749,2.375,2.3784,2.3787,2.3789,2.378,2.3789,2.3792,2.3803,2.3808,2.3802,2.3801,2.3798,2.373,2.3804,2.3801,2.38,2.3664,2.3661,2.3658,0,0,0,0,0,0,2.3775,2.3772,2.3749,2.3764,2.3762,2.3784,2.3774,2.3779,2.3774,2.3791,2.3795,2.3794,2.3804,2.3801,2.3765,2.3731,2.3801,2.3799,2.3667,2.3663,2.366,2.3592,0,0,0,0,0,0,2.3776,2.3772,2.3751,2.3763,2.3761,2.3716,2.3772,2.3777,2.3771,2.3777,2.3783,2.3786,2.3806,2.3768,2.3763,2.3729,2.3797,2.367,2.3665,2.3661,2.3597,2.3587,2.3577,0,0,0,0,0,2.3777,2.373,2.3749,2.3746,2.3735,2.3714,2.3713,2.3738,2.3768,2.3746,2.3757,2.3786,2.3736,2.3763,2.3758,2.3723,2.3672,2.3666,2.3661,2.3602,2.3589,2.3577,0,0,0,0,0,0,2.371,2.3732,2.3754,2.3709,2.371,2.3725,2.3698,2.3723,2.3714,2.372,2.375,2.3751,2.3709,2.3713,2.3743,2.3667,2.3709,2.3702,2.3666,2.3653,2.3643,2.3642,2.3795,0,0,0,0,0,2.3691,2.3674,2.3693,2.3652,2.3652,2.3675,2.3666,2.3686,2.3687,2.3687,2.3695,2.3693,2.3677,2.3666,2.3652,2.3599,2.36,2.3572,2.3562,2.3554,2.3547,2.3519,2.3506,2.364,2.364,2.364,0,0,2.365,2.366,2.3646,2.3639,2.3642,2.3622,2.3674,2.3651,2.3636,2.3683,2.3649,2.3655,2.3655,2.361,2.359,2.3612,2.3511,2.3547,2.354,2.3538,2.3512,2.3499,2.3488,2.3637,2.3637,2.3638,0,0,2.3564,2.3571,2.3537,2.354,2.3544,2.356,2.3552,2.3563,2.3569,2.3537,2.3571,2.3553,2.3525,2.3524,2.3519,2.3435,2.3461,2.343,2.3376,2.3348,2.3338,2.3328,2.3297,2.3286,2.3423,2.3423,2.3423,0,2.3512,2.3485,2.3516,2.3491,2.3486,2.3531,2.3496,2.3496,2.3495,2.349,2.3514,2.3481,2.3484,2.3439,2.3418,2.3414,2.3404,2.3428,2.3337,2.3328,2.332,2.329,2.3279,2.3419,2.342,2.342,2.342,0,2.3419,2.34,2.3373,2.3372,2.3365,2.3335,2.336,2.3349,2.3369,2.3382,2.3348,2.3354,2.3342,2.3333,2.3352,2.329,2.3304,2.3332,2.3375,2.3303,2.3275,2.3264,2.3414,2.3415,2.3416,2.3417,0,0,2.3289,2.3309,2.3298,2.3299,2.3308,2.3292,2.3264,2.3255,2.3244,2.3242,2.3218,2.3194,2.3221,2.3216,2.3236,2.3212,2.3143,2.3243,2.3244,2.3223,2.3074,2.3051,2.3038,2.3162,2.316,2.3158,2.3074,0,2.3206,2.3161,2.3189,2.3138,2.312,2.3163,2.3139,2.3141,2.3152,2.3138,2.315,2.3132,2.317,2.3167,2.3145,2.3156,2.3113,2.3163,2.3137,2.3136,2.3134,2.3024,2.2999,2.292,2.3063,2.3062,2.306,0,2.3102,2.3098,2.3046,2.3059,2.3053,2.303,2.3024,2.3011,2.3013,2.3024,2.3019,2.3045,2.3017,2.3061,2.3022,2.3055,2.3046,2.305,2.3048,2.3044,2.3092,2.3016,2.2895,2.2882,2.3044,2.3045,2.3047,0,2.3011,2.2992,2.2959,2.2959,2.2973,2.2956,2.2961,2.2967,2.296,2.2954,2.2949,2.2939,2.2933,2.2925,2.2947,2.2977,2.2904,2.295,2.291,2.2909,2.2891,2.2891,2.2765,2.2889,2.2889,2.2889,2.2889,0,2.2914,2.288,2.2919,2.2898,2.2861,2.2894,2.2856,2.2865,2.287,2.2851,2.2887,2.2868,2.2899,2.2883,2.29,2.2865,2.2862,2.2868,2.2872,2.2864,2.2863,2.2857,2.2862,2.2886,2.2886,2.2887,2.2888,0,2.2805,2.2829,2.2796,2.2813,2.2817,2.2789,2.2803,2.2784,2.2799,2.2774,2.277,2.2793,2.2776,2.2798,2.2782,2.2794,2.2745,2.2759,2.2744,2.2747,2.2706,2.2709,2.257,2.2553,2.2688,2.2687,2.2686,0,2.274,2.2716,2.2731,2.2722,2.2726,2.271,2.2703,2.2735,2.2726,2.2728,2.2708,2.2695,2.2685,2.2655,2.2669,2.2657,2.267,2.2622,2.2668,2.266,2.2667,2.2668,2.2665,2.2611,2.261,2.2609,2.2607,0,2.2622,2.2636,2.2627,2.2621,2.2612,2.2609,2.2608,2.2598,2.2631,2.2619,2.2603,2.2595,2.2581,2.2566,2.2558,2.2562,2.2589,2.2594,2.2583,2.2573,2.2565,2.2567,2.2717,2.2596,2.2597,2.2598,2.2598,2.2599,2.2533,2.2513,2.2521,2.2509,2.2512,2.2511,2.2494,2.2508,2.2495,2.2487,2.2506,2.2485,2.2489,2.2481,2.2482,2.2465,2.2485,2.2471,2.2467,2.2462,2.2455,2.257,2.2464,2.2464,2.2464,2.2465,2.2465,0,2.2416,2.2424,2.2413,2.2411,2.2401,2.2431,2.2432,2.2421,2.2403,2.2405,2.2396,2.2377,2.2363,2.2377,2.2366,2.2349,2.2362,2.2345,2.2346,2.2346,2.2439,2.2448,2.2335,2.2335,2.2335,2.2335,2.2336,2.2336,2.2354,2.2322,2.2337,2.2306,2.2314,2.2295,2.2293,2.2292,2.2294,2.2272,2.2262,2.2272,2.2278,2.2268,2.2256,2.2261,2.2254,2.2232,2.2241,2.2327,2.2339,2.2351,2.236,2.2231,2.2231,2.215,2.2149,2.2148]}]]